^^
Station Historical Data
Daily Summary for March 26, 2019 Units:  English    Metric   Both
« Previous Day
Next Day »
Daily Weekly Monthly Yearly Custom
  High: Low: Average:
Temperature: 39.4 °F 30.9 °F 34.3 °F
Dew Point: 36.3 °F 28.0 °F 32.4 °F
Humidity: 96% 88% 93%
Wind Speed: 18.0mph 3.0mph 8.2mph
Wind Gust: 22.0mph - -
Wind- - SSE
Pressure: 30.27 in 29.81 in -
Precipitation: 0.00 in    
Historical Graphs
 
 
Tabular Data for March 26, 2019
Time Temperature Dew Point Pressure Wind Wind Speed Wind Gust Humidity Rainfall Rate (Hourly) solar Conditions
00:04 30.9 °F 28.0 °F 30.27 in SE 5.0 mph 7.0 mph 89% 0.00 in 0.00 W/m2
00:09 30.9 °F 28.0 °F 30.27 in SE 9.0 mph 9.0 mph 89% 0.00 in 0.00 W/m2
00:14 31.0 °F 28.1 °F 30.27 in SE 5.0 mph 9.0 mph 89% 0.00 in 0.00 W/m2
00:19 31.0 °F 28.1 °F 30.27 in SE 7.0 mph 9.0 mph 89% 0.00 in 0.00 W/m2
00:24 31.0 °F 28.1 °F 30.26 in SE 7.0 mph 9.0 mph 89% 0.00 in 0.00 W/m2
00:29 31.0 °F 28.1 °F 30.27 in SSE 6.0 mph 7.0 mph 89% 0.00 in 0.00 W/m2
00:34 31.0 °F 28.1 °F 30.26 in SSE 6.0 mph 9.0 mph 89% 0.00 in 0.00 W/m2
00:39 31.1 °F 28.2 °F 30.26 in SE 5.0 mph 9.0 mph 89% 0.00 in 0.00 W/m2
00:44 31.1 °F 28.2 °F 30.26 in SE 6.0 mph 9.0 mph 89% 0.00 in 0.00 W/m2
00:49 31.1 °F 28.2 °F 30.25 in SE 6.0 mph 9.0 mph 89% 0.00 in 0.00 W/m2
00:54 31.1 °F 28.5 °F 30.25 in SE 5.0 mph 9.0 mph 90% 0.00 in 0.00 W/m2
00:59 31.1 °F 28.5 °F 30.25 in SE 8.0 mph 8.0 mph 90% 0.00 in 0.00 W/m2
01:04 31.1 °F 28.5 °F 30.25 in SE 8.0 mph 9.0 mph 90% 0.00 in 0.00 W/m2
01:09 31.0 °F 28.4 °F 30.25 in SSE 8.0 mph 10.0 mph 90% 0.00 in 0.00 W/m2
01:14 31.0 °F 28.4 °F 30.25 in SSE 5.0 mph 10.0 mph 90% 0.00 in 0.00 W/m2
01:19 30.9 °F 28.3 °F 30.25 in South 5.0 mph 10.0 mph 90% 0.00 in 0.00 W/m2
01:24 30.9 °F 28.6 °F 30.25 in SE 7.0 mph 10.0 mph 91% 0.00 in 0.00 W/m2
01:29 30.9 °F 28.6 °F 30.25 in SE 6.0 mph 10.0 mph 91% 0.00 in 0.00 W/m2
01:34 31.0 °F 28.7 °F 30.24 in SE 6.0 mph 9.0 mph 91% 0.00 in 0.00 W/m2
01:39 31.0 °F 28.7 °F 30.24 in SE 7.0 mph 9.0 mph 91% 0.00 in 0.00 W/m2
01:44 31.0 °F 28.7 °F 30.24 in SE 6.0 mph 8.0 mph 91% 0.00 in 0.00 W/m2
01:49 31.0 °F 28.7 °F 30.24 in SE 6.0 mph 8.0 mph 91% 0.00 in 0.00 W/m2
01:54 31.0 °F 28.7 °F 30.24 in SSE 5.0 mph 8.0 mph 91% 0.00 in 0.00 W/m2
01:59 31.0 °F 28.7 °F 30.24 in SE 5.0 mph 8.0 mph 91% 0.00 in 0.00 W/m2
02:04 31.1 °F 28.8 °F 30.24 in SE 5.0 mph 8.0 mph 91% 0.00 in 0.00 W/m2
02:09 31.0 °F 28.7 °F 30.24 in SE 5.0 mph 7.0 mph 91% 0.00 in 0.00 W/m2
02:14 31.1 °F 28.8 °F 30.23 in SE 7.0 mph 7.0 mph 91% 0.00 in 0.00 W/m2
02:19 31.1 °F 29.0 °F 30.23 in SSE 6.0 mph 8.0 mph 92% 0.00 in 0.00 W/m2
02:24 31.1 °F 29.0 °F 30.24 in SSE 4.0 mph 8.0 mph 92% 0.00 in 0.00 W/m2
02:29 31.1 °F 29.0 °F 30.23 in SSE 5.0 mph 8.0 mph 92% 0.00 in 0.00 W/m2
02:34 31.2 °F 29.1 °F 30.23 in SE 6.0 mph 8.0 mph 92% 0.00 in 0.00 W/m2
02:39 31.2 °F 29.1 °F 30.22 in SE 7.0 mph 9.0 mph 92% 0.00 in 0.00 W/m2
02:44 31.2 °F 29.1 °F 30.21 in SE 8.0 mph 9.0 mph 92% 0.00 in 0.00 W/m2
02:49 31.2 °F 29.1 °F 30.21 in ESE 9.0 mph 10.0 mph 92% 0.00 in 0.00 W/m2
02:54 31.2 °F 29.1 °F 30.21 in ESE 9.0 mph 10.0 mph 92% 0.00 in 0.00 W/m2
02:59 31.2 °F 29.1 °F 30.20 in SE 5.0 mph 10.0 mph 92% 0.00 in 0.00 W/m2
03:04 31.2 °F 29.4 °F 30.20 in SE 10.0 mph 12.0 mph 93% 0.00 in 0.00 W/m2
03:09 31.2 °F 29.4 °F 30.20 in ESE 7.0 mph 12.0 mph 93% 0.00 in 0.00 W/m2
03:14 31.2 °F 29.4 °F 30.20 in SSE 10.0 mph 12.0 mph 93% 0.00 in 0.00 W/m2
03:19 31.3 °F 29.5 °F 30.20 in SE 7.0 mph 12.0 mph 93% 0.00 in 0.00 W/m2
03:24 31.3 °F 29.5 °F 30.20 in SE 6.0 mph 11.0 mph 93% 0.00 in 0.00 W/m2
03:29 31.4 °F 29.6 °F 30.20 in SE 9.0 mph 10.0 mph 93% 0.00 in 0.00 W/m2
03:34 31.4 °F 29.6 °F 30.19 in SE 9.0 mph 13.0 mph 93% 0.00 in 0.00 W/m2
03:39 31.4 °F 29.6 °F 30.19 in SSE 6.0 mph 13.0 mph 93% 0.00 in 0.00 W/m2
03:44 31.4 °F 29.6 °F 30.19 in South 4.0 mph 13.0 mph 93% 0.00 in 0.00 W/m2
03:49 31.4 °F 29.6 °F 30.20 in SSE 4.0 mph 11.0 mph 93% 0.00 in 0.00 W/m2
03:54 31.4 °F 29.6 °F 30.19 in SSE 8.0 mph 9.0 mph 93% 0.00 in 0.00 W/m2
03:59 31.4 °F 29.6 °F 30.20 in SSE 8.0 mph 10.0 mph 93% 0.00 in 0.00 W/m2
04:04 31.4 °F 29.6 °F 30.19 in South 8.0 mph 10.0 mph 93% 0.00 in 0.00 W/m2
04:09 31.4 °F 29.6 °F 30.19 in SSE 8.0 mph 10.0 mph 93% 0.00 in 0.00 W/m2
04:14 31.5 °F 29.7 °F 30.19 in SSE 7.0 mph 10.0 mph 93% 0.00 in 0.00 W/m2
04:19 31.5 °F 29.7 °F 30.19 in South 6.0 mph 10.0 mph 93% 0.00 in 0.00 W/m2
04:24 31.5 °F 29.7 °F 30.19 in South 9.0 mph 10.0 mph 93% 0.00 in 0.00 W/m2
04:29 31.4 °F 29.6 °F 30.19 in SSE 7.0 mph 10.0 mph 93% 0.00 in 0.00 W/m2
04:34 31.4 °F 29.6 °F 30.18 in SSE 6.0 mph 10.0 mph 93% 0.00 in 0.00 W/m2
04:39 31.4 °F 29.6 °F 30.18 in SSE 4.0 mph 8.0 mph 93% 0.00 in 0.00 W/m2
04:44 31.4 °F 29.6 °F 30.18 in SSE 4.0 mph 8.0 mph 93% 0.00 in 0.00 W/m2
04:49 31.4 °F 29.6 °F 30.18 in SSE 6.0 mph 8.0 mph 93% 0.00 in 0.00 W/m2
04:54 31.4 °F 29.6 °F 30.18 in SSE 4.0 mph 8.0 mph 93% 0.00 in 0.00 W/m2
04:59 31.4 °F 29.6 °F 30.18 in SSE 7.0 mph 8.0 mph 93% 0.00 in 0.00 W/m2
05:04 31.5 °F 29.7 °F 30.18 in South 5.0 mph 8.0 mph 93% 0.00 in 0.00 W/m2
05:09 31.6 °F 29.8 °F 30.17 in South 11.0 mph 12.0 mph 93% 0.00 in 0.00 W/m2
05:14 31.7 °F 29.9 °F 30.17 in South 8.0 mph 12.0 mph 93% 0.00 in 0.00 W/m2
05:19 31.7 °F 29.9 °F 30.17 in SSE 9.0 mph 13.0 mph 93% 0.00 in 0.00 W/m2
05:24 31.7 °F 29.9 °F 30.17 in SSE 7.0 mph 13.0 mph 93% 0.00 in 0.00 W/m2
05:29 31.8 °F 30.0 °F 30.16 in SSE 5.0 mph 14.0 mph 93% 0.00 in 0.00 W/m2
05:34 31.8 °F 30.0 °F 30.16 in South 7.0 mph 14.0 mph 93% 0.00 in 0.00 W/m2
05:39 31.8 °F 30.0 °F 30.16 in SSE 8.0 mph 12.0 mph 93% 0.00 in 0.00 W/m2
05:44 31.9 °F 30.1 °F 30.16 in SSE 9.0 mph 12.0 mph 93% 0.00 in 0.00 W/m2
05:49 31.9 °F 30.1 °F 30.16 in South 6.0 mph 12.0 mph 93% 0.00 in 0.00 W/m2
05:54 31.9 °F 30.1 °F 30.16 in South 9.0 mph 12.0 mph 93% 0.00 in 0.00 W/m2
05:59 31.9 °F 30.1 °F 30.16 in SSE 7.0 mph 13.0 mph 93% 0.00 in 0.00 W/m2
06:04 31.9 °F 30.4 °F 30.16 in SSE 8.0 mph 13.0 mph 94% 0.00 in 0.00 W/m2
06:09 31.9 °F 30.4 °F 30.16 in South 6.0 mph 13.0 mph 94% 0.00 in 0.00 W/m2
06:14 31.9 °F 30.4 °F 30.16 in South 9.0 mph 12.0 mph 94% 0.00 in 0.00 W/m2
06:19 32.0 °F 30.5 °F 30.16 in South 9.0 mph 12.0 mph 94% 0.00 in 0.00 W/m2
06:24 32.0 °F 30.5 °F 30.16 in South 7.0 mph 11.0 mph 94% 0.00 in 0.00 W/m2
06:29 32.0 °F 30.5 °F 30.15 in South 8.0 mph 11.0 mph 94% 0.00 in 0.00 W/m2
06:34 32.0 °F 30.5 °F 30.15 in SSE 6.0 mph 12.0 mph 94% 0.00 in 0.00 W/m2
06:39 32.0 °F 30.5 °F 30.15 in South 9.0 mph 12.0 mph 94% 0.00 in 0.00 W/m2
06:44 32.0 °F 30.5 °F 30.15 in SSE 8.0 mph 12.0 mph 94% 0.00 in 0.00 W/m2
06:49 31.9 °F 30.4 °F 30.14 in SSE 11.0 mph 13.0 mph 94% 0.00 in 0.00 W/m2
06:54 31.9 °F 30.4 °F 30.14 in South 7.0 mph 14.0 mph 94% 0.00 in 0.00 W/m2
06:59 31.9 °F 30.4 °F 30.14 in SSE 10.0 mph 14.0 mph 94% 0.00 in 0.00 W/m2
07:04 32.0 °F 30.5 °F 30.14 in South 7.0 mph 12.0 mph 94% 0.00 in 0.00 W/m2
07:09 31.9 °F 30.6 °F 30.14 in SSE 7.0 mph 14.0 mph 95% 0.00 in 0.00 W/m2
07:14 32.0 °F 30.7 °F 30.14 in SSE 7.0 mph 14.0 mph 95% 0.00 in 0.00 W/m2
07:19 32.0 °F 30.7 °F 30.14 in SSE 9.0 mph 13.0 mph 95% 0.00 in 0.00 W/m2
07:24 32.0 °F 30.7 °F 30.14 in SSE 8.0 mph 13.0 mph 95% 0.00 in 0.00 W/m2
07:29 32.0 °F 30.7 °F 30.13 in South 10.0 mph 14.0 mph 95% 0.00 in 0.00 W/m2
07:34 32.0 °F 30.7 °F 30.13 in South 9.0 mph 14.0 mph 95% 0.00 in 0.00 W/m2
07:39 32.0 °F 30.7 °F 30.14 in South 5.0 mph 20.0 mph 95% 0.00 in 5.00 W/m2
07:44 32.0 °F 30.7 °F 30.13 in South 10.0 mph 20.0 mph 95% 0.00 in 7.00 W/m2
07:49 32.0 °F 30.7 °F 30.13 in South 6.0 mph 14.0 mph 95% 0.00 in 9.00 W/m2
07:54 32.0 °F 30.7 °F 30.13 in South 12.0 mph 14.0 mph 95% 0.00 in 11.00 W/m2
07:59 32.0 °F 30.7 °F 30.13 in SSW 7.0 mph 13.0 mph 95% 0.00 in 14.00 W/m2
08:04 32.1 °F 30.8 °F 30.13 in South 9.0 mph 12.0 mph 95% 0.00 in 16.00 W/m2
08:09 32.1 °F 30.8 °F 30.12 in SSE 10.0 mph 12.0 mph 95% 0.00 in 18.00 W/m2
08:14 32.1 °F 30.8 °F 30.12 in South 8.0 mph 14.0 mph 95% 0.00 in 26.00 W/m2
08:19 32.1 °F 30.8 °F 30.12 in SSE 10.0 mph 16.0 mph 95% 0.00 in 32.00 W/m2
08:24 32.1 °F 30.8 °F 30.11 in SSE 8.0 mph 16.0 mph 95% 0.00 in 28.00 W/m2
08:29 32.2 °F 30.9 °F 30.12 in South 10.0 mph 16.0 mph 95% 0.00 in 39.00 W/m2
08:34 32.1 °F 30.8 °F 30.12 in South 9.0 mph 15.0 mph 95% 0.00 in 47.00 W/m2
08:39 32.2 °F 30.9 °F 30.12 in South 13.0 mph 15.0 mph 95% 0.00 in 56.00 W/m2
08:44 32.2 °F 30.9 °F 30.12 in South 8.0 mph 15.0 mph 95% 0.00 in 62.00 W/m2
08:49 32.3 °F 31.0 °F 30.12 in SSE 12.0 mph 16.0 mph 95% 0.00 in 54.00 W/m2
08:54 32.3 °F 31.0 °F 30.12 in SSE 10.0 mph 16.0 mph 95% 0.00 in 51.00 W/m2
08:59 32.3 °F 31.0 °F 30.12 in South 14.0 mph 17.0 mph 95% 0.00 in 51.00 W/m2
09:04 32.3 °F 31.0 °F 30.12 in South 13.0 mph 19.0 mph 95% 0.00 in 56.00 W/m2
09:09 32.2 °F 30.9 °F 30.12 in SSW 8.0 mph 19.0 mph 95% 0.00 in 60.00 W/m2
09:14 32.3 °F 31.0 °F 30.11 in South 12.0 mph 18.0 mph 95% 0.00 in 65.00 W/m2
09:19 32.3 °F 31.0 °F 30.11 in SSE 8.0 mph 18.0 mph 95% 0.00 in 69.00 W/m2
09:24 32.3 °F 31.0 °F 30.11 in SSW 7.0 mph 15.0 mph 95% 0.00 in 77.00 W/m2
09:29 32.4 °F 31.4 °F 30.11 in South 6.0 mph 15.0 mph 96% 0.00 in 90.00 W/m2
09:34 32.4 °F 31.4 °F 30.11 in South 9.0 mph 15.0 mph 96% 0.00 in 90.00 W/m2
09:39 32.4 °F 31.4 °F 30.11 in South 15.0 mph 15.0 mph 96% 0.00 in 84.00 W/m2
09:44 32.4 °F 31.4 °F 30.11 in South 11.0 mph 16.0 mph 96% 0.00 in 98.00 W/m2
09:49 32.4 °F 31.4 °F 30.10 in SSE 8.0 mph 16.0 mph 96% 0.00 in 109.00 W/m2
09:54 32.4 °F 31.4 °F 30.10 in South 8.0 mph 16.0 mph 96% 0.00 in 116.00 W/m2
09:59 32.5 °F 31.2 °F 30.10 in South 6.0 mph 16.0 mph 95% 0.00 in 121.00 W/m2
10:04 32.5 °F 31.2 °F 30.10 in SSW 7.0 mph 12.0 mph 95% 0.00 in 127.00 W/m2
10:09 32.6 °F 31.3 °F 30.10 in South 7.0 mph 15.0 mph 95% 0.00 in 127.00 W/m2
10:14 32.7 °F 31.7 °F 30.10 in South 7.0 mph 15.0 mph 96% 0.00 in 135.00 W/m2
10:19 32.8 °F 31.8 °F 30.10 in SSW 7.0 mph 12.0 mph 96% 0.00 in 128.00 W/m2
10:24 32.8 °F 31.8 °F 30.10 in SSE 7.0 mph 12.0 mph 96% 0.00 in 135.00 W/m2
10:29 32.8 °F 31.8 °F 30.10 in South 13.0 mph 15.0 mph 96% 0.00 in 148.00 W/m2
10:34 32.8 °F 31.5 °F 30.09 in South 11.0 mph 15.0 mph 95% 0.00 in 171.00 W/m2
10:39 32.8 °F 31.5 °F 30.09 in South 12.0 mph 14.0 mph 95% 0.00 in 158.00 W/m2
10:44 32.9 °F 31.6 °F 30.09 in South 7.0 mph 17.0 mph 95% 0.00 in 174.00 W/m2
10:49 32.9 °F 31.6 °F 30.09 in South 9.0 mph 17.0 mph 95% 0.00 in 174.00 W/m2
10:54 33.0 °F 31.7 °F 30.09 in SE 15.0 mph 18.0 mph 95% 0.00 in 181.00 W/m2
10:59 33.0 °F 31.7 °F 30.09 in SSW 10.0 mph 20.0 mph 95% 0.00 in 195.00 W/m2
11:04 33.1 °F 32.1 °F 30.09 in South 14.0 mph 20.0 mph 96% 0.00 in 223.00 W/m2
11:09 33.2 °F 32.2 °F 30.09 in South 12.0 mph 18.0 mph 96% 0.00 in 227.00 W/m2
11:14 33.3 °F 32.3 °F 30.08 in South 12.0 mph 15.0 mph 96% 0.00 in 236.00 W/m2
11:19 33.4 °F 32.1 °F 30.08 in South 10.0 mph 16.0 mph 95% 0.00 in 253.00 W/m2
11:24 33.5 °F 32.5 °F 30.08 in SSW 18.0 mph 20.0 mph 96% 0.00 in 237.00 W/m2
11:29 33.6 °F 32.3 °F 30.08 in South 12.0 mph 22.0 mph 95% 0.00 in 253.00 W/m2
11:34 33.8 °F 32.5 °F 30.08 in South 14.0 mph 22.0 mph 95% 0.00 in 257.00 W/m2
11:39 34.0 °F 32.7 °F 30.08 in South 6.0 mph 22.0 mph 95% 0.00 in 246.00 W/m2
11:44 34.2 °F 32.9 °F 30.08 in South 15.0 mph 22.0 mph 95% 0.00 in 225.00 W/m2
11:49 34.4 °F 33.1 °F 30.08 in SSW 7.0 mph 19.0 mph 95% 0.00 in 227.00 W/m2
11:54 34.6 °F 33.3 °F 30.08 in South 15.0 mph 21.0 mph 95% 0.00 in 243.00 W/m2
11:59 34.7 °F 33.4 °F 30.07 in South 12.0 mph 21.0 mph 95% 0.00 in 237.00 W/m2
12:04 34.9 °F 33.6 °F 30.07 in South 5.0 mph 15.0 mph 95% 0.00 in 243.00 W/m2
12:09 35.1 °F 33.8 °F 30.07 in SSE 9.0 mph 17.0 mph 95% 0.00 in 234.00 W/m2
12:14 35.2 °F 33.9 °F 30.07 in South 8.0 mph 17.0 mph 95% 0.00 in 237.00 W/m2
12:19 35.4 °F 34.1 °F 30.07 in South 14.0 mph 18.0 mph 95% 0.00 in 248.00 W/m2
12:24 35.5 °F 33.9 °F 30.07 in South 12.0 mph 18.0 mph 94% 0.00 in 237.00 W/m2
12:29 35.6 °F 34.0 °F 30.06 in SSE 9.0 mph 21.0 mph 94% 0.00 in 274.00 W/m2
12:34 35.8 °F 34.2 °F 30.06 in South 14.0 mph 21.0 mph 94% 0.00 in 315.00 W/m2
12:39 36.0 °F 34.4 °F 30.06 in SSW 14.0 mph 18.0 mph 94% 0.00 in 322.00 W/m2
12:44 36.2 °F 34.6 °F 30.06 in SSW 9.0 mph 18.0 mph 94% 0.00 in 318.00 W/m2
12:49 36.4 °F 34.6 °F 30.05 in South 11.0 mph 19.0 mph 93% 0.00 in 336.00 W/m2
12:54 36.5 °F 34.7 °F 30.05 in South 10.0 mph 19.0 mph 93% 0.00 in 338.00 W/m2
12:59 36.5 °F 34.7 °F 30.05 in SSE 13.0 mph 20.0 mph 93% 0.00 in 308.00 W/m2
13:04 36.6 °F 34.8 °F 30.04 in South 18.0 mph 20.0 mph 93% 0.00 in 336.00 W/m2
13:09 36.5 °F 34.4 °F 30.04 in South 11.0 mph 19.0 mph 92% 0.00 in 304.00 W/m2
13:14 36.6 °F 34.5 °F 30.04 in South 15.0 mph 19.0 mph 92% 0.00 in 343.00 W/m2
13:19 36.8 °F 34.7 °F 30.03 in South 13.0 mph 21.0 mph 92% 0.00 in 378.00 W/m2
13:24 36.9 °F 34.8 °F 30.03 in South 10.0 mph 21.0 mph 92% 0.00 in 338.00 W/m2
13:29 36.9 °F 34.8 °F 30.03 in South 10.0 mph 18.0 mph 92% 0.00 in 301.00 W/m2
13:34 37.0 °F 34.9 °F 30.03 in South 8.0 mph 18.0 mph 92% 0.00 in 290.00 W/m2
13:39 37.1 °F 35.0 °F 30.03 in SSW 7.0 mph 16.0 mph 92% 0.00 in 283.00 W/m2
13:44 37.2 °F 34.8 °F 30.03 in SSE 9.0 mph 16.0 mph 91% 0.00 in 311.00 W/m2
13:49 37.2 °F 34.8 °F 30.03 in South 11.0 mph 16.0 mph 91% 0.00 in 320.00 W/m2
13:54 37.4 °F 35.3 °F 30.02 in SSW 13.0 mph 16.0 mph 92% 0.00 in 325.00 W/m2
13:59 37.6 °F 35.5 °F 30.02 in South 14.0 mph 15.0 mph 92% 0.00 in 367.00 W/m2
14:04 37.7 °F 35.3 °F 30.01 in South 11.0 mph 17.0 mph 91% 0.00 in 394.00 W/m2
14:09 37.7 °F 35.3 °F 30.01 in South 15.0 mph 17.0 mph 91% 0.00 in 415.00 W/m2
14:14 38.0 °F 35.6 °F 30.00 in SSW 9.0 mph 17.0 mph 91% 0.00 in 383.00 W/m2
14:19 38.2 °F 35.8 °F 30.00 in South 12.0 mph 16.0 mph 91% 0.00 in 432.00 W/m2
14:24 38.3 °F 35.6 °F 30.00 in SSW 7.0 mph 16.0 mph 90% 0.00 in 462.00 W/m2
14:29 38.6 °F 35.9 °F 30.00 in South 8.0 mph 15.0 mph 90% 0.00 in 392.00 W/m2
14:34 38.6 °F 35.9 °F 30.00 in South 8.0 mph 15.0 mph 90% 0.00 in 352.00 W/m2
14:39 38.7 °F 36.0 °F 30.00 in SSE 7.0 mph 14.0 mph 90% 0.00 in 373.00 W/m2
14:44 38.7 °F 35.7 °F 29.99 in South 12.0 mph 15.0 mph 89% 0.00 in 385.00 W/m2
14:49 38.4 °F 35.4 °F 29.99 in South 12.0 mph 16.0 mph 89% 0.00 in 369.00 W/m2
14:54 38.3 °F 35.6 °F 29.99 in South 12.0 mph 17.0 mph 90% 0.00 in 378.00 W/m2
14:59 38.4 °F 35.7 °F 29.99 in South 8.0 mph 17.0 mph 90% 0.00 in 397.00 W/m2
15:04 38.8 °F 36.1 °F 29.99 in South 14.0 mph 16.0 mph 90% 0.00 in 388.00 W/m2
15:09 38.9 °F 35.9 °F 29.98 in SSW 10.0 mph 16.0 mph 89% 0.00 in 406.00 W/m2
15:14 39.1 °F 36.1 °F 29.98 in SSW 7.0 mph 16.0 mph 89% 0.00 in 427.00 W/m2
15:19 39.3 °F 36.3 °F 29.98 in SSW 8.0 mph 16.0 mph 89% 0.00 in 360.00 W/m2
15:24 39.4 °F 36.1 °F 29.98 in South 11.0 mph 15.0 mph 88% 0.00 in 359.00 W/m2
15:29 39.1 °F 35.8 °F 29.98 in South 16.0 mph 16.0 mph 88% 0.00 in 346.00 W/m2
15:34 38.7 °F 35.5 °F 29.97 in South 13.0 mph 16.0 mph 88% 0.00 in 350.00 W/m2
15:39 38.6 °F 35.6 °F 29.97 in SSW 10.0 mph 16.0 mph 89% 0.00 in 343.00 W/m2
15:44 38.6 °F 35.6 °F 29.97 in South 9.0 mph 19.0 mph 89% 0.00 in 345.00 W/m2
15:49 38.7 °F 35.7 °F 29.96 in South 14.0 mph 19.0 mph 89% 0.00 in 390.00 W/m2
15:54 38.8 °F 35.8 °F 29.96 in South 6.0 mph 17.0 mph 89% 0.00 in 371.00 W/m2
15:59 38.9 °F 35.9 °F 29.96 in SSE 8.0 mph 15.0 mph 89% 0.00 in 353.00 W/m2
16:04 38.8 °F 35.8 °F 29.96 in South 12.0 mph 15.0 mph 89% 0.00 in 262.00 W/m2
16:09 38.7 °F 35.7 °F 29.96 in South 13.0 mph 14.0 mph 89% 0.00 in 323.00 W/m2
16:14 38.8 °F 35.8 °F 29.96 in SSW 11.0 mph 14.0 mph 89% 0.00 in 362.00 W/m2
16:19 39.1 °F 36.1 °F 29.96 in SSE 6.0 mph 14.0 mph 89% 0.00 in 274.00 W/m2
16:24 38.9 °F 35.9 °F 29.95 in SSW 10.0 mph 15.0 mph 89% 0.00 in 220.00 W/m2
16:29 38.8 °F 35.8 °F 29.95 in South 13.0 mph 17.0 mph 89% 0.00 in 237.00 W/m2
16:34 38.6 °F 35.6 °F 29.95 in South 9.0 mph 17.0 mph 89% 0.00 in 267.00 W/m2
16:39 38.6 °F 35.6 °F 29.95 in SSE 10.0 mph 17.0 mph 89% 0.00 in 292.00 W/m2
16:44 38.6 °F 35.6 °F 29.95 in SSW 7.0 mph 15.0 mph 89% 0.00 in 281.00 W/m2
16:49 38.6 °F 35.6 °F 29.95 in SSW 9.0 mph 15.0 mph 89% 0.00 in 236.00 W/m2
16:54 38.4 °F 35.4 °F 29.95 in SSW 8.0 mph 16.0 mph 89% 0.00 in 241.00 W/m2
16:59 38.4 °F 35.7 °F 29.94 in South 13.0 mph 16.0 mph 90% 0.00 in 230.00 W/m2
17:04 38.3 °F 35.6 °F 29.94 in South 8.0 mph 16.0 mph 90% 0.00 in 255.00 W/m2
17:09 38.4 °F 35.7 °F 29.94 in South 8.0 mph 16.0 mph 90% 0.00 in 257.00 W/m2
17:14 38.5 °F 35.8 °F 29.94 in SSE 8.0 mph 16.0 mph 90% 0.00 in 239.00 W/m2
17:19 38.2 °F 35.5 °F 29.93 in South 6.0 mph 15.0 mph 90% 0.00 in 188.00 W/m2
17:24 38.3 °F 35.6 °F 29.93 in South 11.0 mph 16.0 mph 90% 0.00 in 204.00 W/m2
17:29 38.2 °F 35.5 °F 29.93 in South 8.0 mph 16.0 mph 90% 0.00 in 216.00 W/m2
17:34 38.1 °F 35.4 °F 29.92 in South 12.0 mph 18.0 mph 90% 0.00 in 204.00 W/m2
17:39 38.1 °F 35.7 °F 29.92 in South 7.0 mph 18.0 mph 91% 0.00 in 162.00 W/m2
17:44 38.1 °F 35.7 °F 29.92 in South 9.0 mph 14.0 mph 91% 0.00 in 151.00 W/m2
17:49 38.1 °F 35.7 °F 29.92 in SSE 5.0 mph 11.0 mph 91% 0.00 in 118.00 W/m2
17:54 38.0 °F 35.6 °F 29.92 in SSE 10.0 mph 14.0 mph 91% 0.00 in 155.00 W/m2
17:59 37.9 °F 35.2 °F 29.91 in SSE 10.0 mph 15.0 mph 90% 0.00 in 144.00 W/m2
18:04 37.9 °F 35.5 °F 29.91 in South 10.0 mph 15.0 mph 91% 0.00 in 114.00 W/m2
18:09 37.8 °F 35.4 °F 29.91 in SSE 8.0 mph 15.0 mph 91% 0.00 in 105.00 W/m2
18:14 37.8 °F 35.4 °F 29.91 in SSE 10.0 mph 14.0 mph 91% 0.00 in 111.00 W/m2
18:19 37.8 °F 35.4 °F 29.91 in SSE 10.0 mph 14.0 mph 91% 0.00 in 109.00 W/m2
18:24 37.8 °F 35.4 °F 29.90 in SSE 9.0 mph 15.0 mph 91% 0.00 in 127.00 W/m2
18:29 37.8 °F 35.4 °F 29.90 in South 9.0 mph 15.0 mph 91% 0.00 in 151.00 W/m2
18:34 37.9 °F 35.5 °F 29.90 in South 7.0 mph 14.0 mph 91% 0.00 in 130.00 W/m2
18:39 37.9 °F 35.5 °F 29.89 in SSE 8.0 mph 12.0 mph 91% 0.00 in 74.00 W/m2
18:44 37.8 °F 35.4 °F 29.90 in SSE 8.0 mph 14.0 mph 91% 0.00 in 46.00 W/m2
18:49 37.4 °F 35.0 °F 29.90 in SSE 7.0 mph 15.0 mph 91% 0.00 in 37.00 W/m2
18:54 37.1 °F 34.7 °F 29.90 in ESE 7.0 mph 15.0 mph 91% 0.00 in 32.00 W/m2
18:59 36.9 °F 34.8 °F 29.90 in SSE 5.0 mph 12.0 mph 92% 0.00 in 35.00 W/m2
19:04 36.7 °F 34.6 °F 29.89 in SE 5.0 mph 11.0 mph 92% 0.00 in 37.00 W/m2
19:09 36.7 °F 34.6 °F 29.89 in SSE 8.0 mph 10.0 mph 92% 0.00 in 54.00 W/m2
19:14 36.6 °F 34.5 °F 29.88 in SSE 7.0 mph 13.0 mph 92% 0.00 in 46.00 W/m2
19:19 36.6 °F 34.5 °F 29.89 in SSE 7.0 mph 13.0 mph 92% 0.00 in 42.00 W/m2
19:24 36.4 °F 34.3 °F 29.89 in SE 6.0 mph 8.0 mph 92% 0.00 in 39.00 W/m2
19:29 36.3 °F 34.2 °F 29.88 in SSE 7.0 mph 9.0 mph 92% 0.00 in 30.00 W/m2
19:34 36.1 °F 34.3 °F 29.89 in SSE 5.0 mph 9.0 mph 93% 0.00 in 21.00 W/m2
19:39 36.1 °F 34.3 °F 29.88 in SSE 7.0 mph 10.0 mph 93% 0.00 in 16.00 W/m2
19:44 36.0 °F 34.2 °F 29.88 in SE 6.0 mph 10.0 mph 93% 0.00 in 11.00 W/m2
19:49 35.9 °F 34.1 °F 29.88 in SE 4.0 mph 10.0 mph 93% 0.00 in 7.00 W/m2
19:54 35.9 °F 34.1 °F 29.88 in SSE 5.0 mph 10.0 mph 93% 0.00 in 5.00 W/m2
19:59 35.7 °F 33.9 °F 29.88 in SSE 4.0 mph 10.0 mph 93% 0.00 in 0.00 W/m2
20:04 35.7 °F 33.9 °F 29.87 in SSE 6.0 mph 11.0 mph 93% 0.00 in 0.00 W/m2
20:09 35.7 °F 33.9 °F 29.87 in SE 9.0 mph 11.0 mph 93% 0.00 in 0.00 W/m2
20:14 35.6 °F 34.0 °F 29.87 in SSE 7.0 mph 11.0 mph 94% 0.00 in 0.00 W/m2
20:19 35.5 °F 33.9 °F 29.87 in SSE 6.0 mph 12.0 mph 94% 0.00 in 0.00 W/m2
20:24 35.5 °F 33.9 °F 29.87 in SSE 7.0 mph 12.0 mph 94% 0.00 in 0.00 W/m2
20:29 35.4 °F 33.8 °F 29.87 in SSE 6.0 mph 9.0 mph 94% 0.00 in 0.00 W/m2
20:34 35.4 °F 33.8 °F 29.87 in SSE 8.0 mph 11.0 mph 94% 0.00 in 0.00 W/m2
20:39 35.5 °F 33.9 °F 29.86 in South 6.0 mph 11.0 mph 94% 0.00 in 0.00 W/m2
20:44 35.6 °F 34.0 °F 29.86 in South 7.0 mph 10.0 mph 94% 0.00 in 0.00 W/m2
20:49 35.6 °F 34.0 °F 29.86 in SSE 4.0 mph 10.0 mph 94% 0.00 in 0.00 W/m2
20:54 35.6 °F 34.0 °F 29.86 in SSE 5.0 mph 8.0 mph 94% 0.00 in 0.00 W/m2
20:59 35.6 °F 34.0 °F 29.86 in SSE 4.0 mph 10.0 mph 94% 0.00 in 0.00 W/m2
21:04 35.7 °F 34.1 °F 29.86 in South 6.0 mph 10.0 mph 94% 0.00 in 0.00 W/m2
21:09 35.7 °F 34.1 °F 29.86 in South 4.0 mph 9.0 mph 94% 0.00 in 0.00 W/m2
21:14 35.7 °F 34.1 °F 29.86 in SSE 4.0 mph 9.0 mph 94% 0.00 in 0.00 W/m2
21:19 35.5 °F 33.9 °F 29.86 in SSE 5.0 mph 7.0 mph 94% 0.00 in 0.00 W/m2
21:24 35.2 °F 33.6 °F 29.86 in SSE 6.0 mph 9.0 mph 94% 0.00 in 0.00 W/m2
21:29 35.2 °F 33.6 °F 29.86 in SE 6.0 mph 9.0 mph 94% 0.00 in 0.00 W/m2
21:34 35.1 °F 33.5 °F 29.86 in SSE 3.0 mph 8.0 mph 94% 0.00 in 0.00 W/m2
21:39 35.1 °F 33.5 °F 29.86 in SSE 4.0 mph 8.0 mph 94% 0.00 in 0.00 W/m2
21:44 35.0 °F 33.4 °F 29.86 in SSE 5.0 mph 7.0 mph 94% 0.00 in 0.00 W/m2
21:49 34.9 °F 33.3 °F 29.86 in SSE 6.0 mph 8.0 mph 94% 0.00 in 0.00 W/m2
21:54 34.8 °F 33.2 °F 29.85 in ESE 5.0 mph 8.0 mph 94% 0.00 in 0.00 W/m2
21:59 34.8 °F 33.5 °F 29.85 in SE 6.0 mph 8.0 mph 95% 0.00 in 0.00 W/m2
22:04 34.7 °F 33.4 °F 29.85 in SE 3.0 mph 8.0 mph 95% 0.00 in 0.00 W/m2
22:09 34.8 °F 33.5 °F 29.85 in SE 6.0 mph 9.0 mph 95% 0.00 in 0.00 W/m2
22:14 34.8 °F 33.5 °F 29.85 in SE 3.0 mph 9.0 mph 95% 0.00 in 0.00 W/m2
22:19 34.7 °F 33.4 °F 29.85 in SSE 5.0 mph 8.0 mph 95% 0.00 in 0.00 W/m2
22:24 34.7 °F 33.4 °F 29.85 in SE 5.0 mph 7.0 mph 95% 0.00 in 0.00 W/m2
22:29 34.7 °F 33.4 °F 29.85 in SE 6.0 mph 8.0 mph 95% 0.00 in 0.00 W/m2
22:34 34.7 °F 33.4 °F 29.84 in ESE 7.0 mph 8.0 mph 95% 0.00 in 0.00 W/m2
22:39 34.7 °F 33.4 °F 29.84 in SE 7.0 mph 8.0 mph 95% 0.00 in 0.00 W/m2
22:44 34.7 °F 33.4 °F 29.84 in SE 10.0 mph 10.0 mph 95% 0.00 in 0.00 W/m2
22:49 34.6 °F 33.3 °F 29.84 in SE 10.0 mph 10.0 mph 95% 0.00 in 0.00 W/m2
22:54 34.6 °F 33.3 °F 29.84 in SE 10.0 mph 10.0 mph 95% 0.00 in 0.00 W/m2
22:59 34.6 °F 33.3 °F 29.84 in SE 5.0 mph 7.0 mph 95% 0.00 in 0.00 W/m2
23:04 34.6 °F 33.3 °F 29.84 in SE 7.0 mph 7.0 mph 95% 0.00 in 0.00 W/m2
23:09 34.6 °F 33.3 °F 29.84 in SSE 6.0 mph 8.0 mph 95% 0.00 in 0.00 W/m2
23:14 34.5 °F 33.2 °F 29.83 in SE 5.0 mph 9.0 mph 95% 0.00 in 0.00 W/m2
23:19 34.5 °F 33.2 °F 29.82 in SE 7.0 mph 9.0 mph 95% 0.00 in 0.00 W/m2
23:24 34.5 °F 33.2 °F 29.82 in SE 8.0 mph 10.0 mph 95% 0.00 in 0.00 W/m2
23:29 34.3 °F 33.0 °F 29.82 in SE 8.0 mph 10.0 mph 95% 0.00 in 0.00 W/m2
23:34 34.2 °F 32.9 °F 29.82 in SE 8.0 mph 9.0 mph 95% 0.00 in 0.00 W/m2
23:39 34.1 °F 32.8 °F 29.81 in SSE 7.0 mph 11.0 mph 95% 0.00 in 0.00 W/m2
23:44 33.9 °F 32.6 °F 29.82 in SE 7.0 mph 11.0 mph 95% 0.00 in 0.00 W/m2
23:49 33.8 °F 32.8 °F 29.82 in SE 6.0 mph 11.0 mph 96% 0.00 in 0.00 W/m2
23:54 33.7 °F 32.7 °F 29.81 in SE 7.0 mph 11.0 mph 96% 0.00 in 0.00 W/m2
23:59 33.7 °F 32.7 °F 29.81 in SE 8.0 mph 10.0 mph 96% 0.00 in 0.00 W/m2
Bismarck, North Dakota, USA
Compliments of Weather Underground - 4 mb